WXM80 ListenWXM80 Stop

You find our weather info also at:

UK Metoffice

WeatherCloud

Weather Underground

Northeastern Weather Network

AWEKAS

Citizen Weather Observer Program (CWOP)

HAMweather, WeatherForYou, PWS Weather


Weather Underground History page Text

Daily Summary for January 1, 2016 Units:  English    Metric   Both
« Previous Day
Next Day »
Daily Weekly Monthly Yearly Custom
  High: Low: Average:
Temperature: 42.2 °F 35.9 °F 39.9 °F
Dew Point: 32.9 °F 23.5 °F 29.3 °F
Humidity: 71 % 58 % 66 %
Wind Speed: 12.2 mph 1.1 mph 5.1 mph
Wind Gust: 19.6 mph - -
Wind:- - West
Pressure: 30.05 in 29.93 in -
Precipitation: 0.00 in    
Historical Graphs
 
 
Tabular Data for January 1, 2016
Time Temperature Dew Point Pressure Wind Wind Speed Wind Gust Humidity Rainfall Rate (Hourly)
00:03 41.8 °F 32.4 °F 30.05 in WNW 4.1 mph 8.1 mph 69 % 0.00 in
00:08 41.8 °F 32.4 °F 30.04 in NW 3.1 mph 8.1 mph 69 % 0.00 in
00:13 41.8 °F 32.7 °F 30.04 in West 4.0 mph 9.2 mph 70 % 0.00 in
00:18 41.8 °F 32.7 °F 30.04 in North 3.6 mph 4.6 mph 70 % 0.00 in
00:23 41.8 °F 32.4 °F 30.03 in WNW 3.0 mph 5.8 mph 69 % 0.00 in
00:28 41.7 °F 32.3 °F 30.02 in WNW 3.4 mph 7.0 mph 69 % 0.00 in
00:33 41.7 °F 32.3 °F 30.04 in NNW 3.9 mph 4.0 mph 69 % 0.00 in
00:39 41.7 °F 32.6 °F 30.03 in NW 3.2 mph 7.0 mph 70 % 0.00 in
00:44 41.7 °F 32.3 °F 30.04 in NW 4.1 mph 10.4 mph 69 % 0.00 in
00:49 41.7 °F 32.6 °F 30.03 in NW 5.6 mph 11.5 mph 70 % 0.00 in
00:54 41.7 °F 32.6 °F 30.03 in NW 1.6 mph 4.0 mph 70 % 0.00 in
00:59 41.7 °F 32.3 °F 30.03 in WNW 4.2 mph 10.4 mph 69 % 0.00 in
01:04 41.7 °F 32.6 °F 30.03 in NW 3.3 mph 5.8 mph 70 % 0.00 in
01:09 41.6 °F 32.2 °F 30.03 in West 1.5 mph 5.8 mph 69 % 0.00 in
01:14 41.6 °F 32.5 °F 30.03 in North 3.3 mph 6.9 mph 70 % 0.00 in
01:19 41.6 °F 32.5 °F 30.02 in WNW 3.1 mph 6.9 mph 70 % 0.00 in
01:24 41.6 °F 32.2 °F 30.02 in West 2.3 mph 6.9 mph 69 % 0.00 in
01:30 41.6 °F 32.5 °F 30.02 in WNW 2.4 mph 2.4 mph 70 % 0.00 in
01:35 41.6 °F 32.5 °F 30.02 in West 1.5 mph 4.6 mph 70 % 0.00 in
01:40 41.6 °F 32.9 °F 30.03 in WNW 8.0 mph 11.5 mph 71 % 0.00 in
01:45 41.5 °F 32.4 °F 30.03 in NW 9.3 mph 13.8 mph 70 % 0.00 in
01:50 41.5 °F 31.7 °F 30.03 in WNW 4.7 mph 16.1 mph 68 % 0.00 in
01:55 41.5 °F 32.4 °F 30.03 in WNW 4.8 mph 11.5 mph 70 % 0.00 in
02:00 41.5 °F 32.8 °F 30.04 in NW 3.2 mph 6.9 mph 71 % 0.00 in
02:05 41.5 °F 32.8 °F 30.03 in SW 6.6 mph 10.4 mph 71 % 0.00 in
02:10 41.5 °F 32.8 °F 30.03 in WNW 5.2 mph 8.0 mph 71 % 0.00 in
02:15 41.4 °F 32.3 °F 30.03 in West 2.6 mph 8.1 mph 70 % 0.00 in
02:21 41.4 °F 32.3 °F 30.04 in SW 5.9 mph 12.7 mph 70 % 0.00 in
02:26 41.4 °F 32.3 °F 30.04 in WNW 4.4 mph 12.7 mph 70 % 0.00 in
02:31 41.4 °F 32.0 °F 30.04 in WSW 9.2 mph 19.6 mph 69 % 0.00 in
02:36 41.3 °F 31.9 °F 30.03 in West 3.8 mph 10.4 mph 69 % 0.00 in
02:41 41.3 °F 32.6 °F 30.04 in NW 5.2 mph 10.0 mph 71 % 0.00 in
02:46 41.3 °F 32.2 °F 30.03 in NW 5.4 mph 11.5 mph 70 % 0.00 in
02:51 41.3 °F 32.2 °F 30.03 in SW 3.4 mph 5.0 mph 70 % 0.00 in
02:56 41.3 °F 32.2 °F 30.03 in WNW 6.6 mph 12.7 mph 70 % 0.00 in
03:06 41.2 °F 32.2 °F 30.04 in SW 5.0 mph 11.5 mph 70 % 0.00 in
03:12 41.2 °F 32.5 °F 30.03 in NW 2.8 mph 11.5 mph 71 % 0.00 in
03:17 41.1 °F 32.4 °F 30.03 in WNW 4.3 mph 9.2 mph 71 % 0.00 in
03:22 41.1 °F 32.4 °F 30.03 in West 6.5 mph 11.5 mph 71 % 0.00 in
03:27 41.1 °F 32.4 °F 30.03 in WNW 6.6 mph 12.0 mph 71 % 0.00 in
03:32 41.1 °F 32.1 °F 30.03 in WNW 5.4 mph 9.0 mph 70 % 0.00 in
03:37 41.1 °F 32.1 °F 30.02 in NW 4.3 mph 10.4 mph 70 % 0.00 in
03:42 41.0 °F 32.0 °F 30.02 in WNW 2.5 mph 7.0 mph 70 % 0.00 in
03:47 41.0 °F 32.0 °F 30.02 in West 4.3 mph 6.0 mph 70 % 0.00 in
03:52 41.0 °F 32.3 °F 30.02 in WSW 1.2 mph 4.0 mph 71 % 0.00 in
03:57 40.9 °F 31.9 °F 30.02 in West 2.7 mph 4.6 mph 70 % 0.00 in
04:03 40.9 °F 32.2 °F 30.03 in West 3.3 mph 8.1 mph 71 % 0.00 in
04:08 40.8 °F 32.1 °F 30.03 in West 2.8 mph 5.8 mph 71 % 0.00 in
04:13 40.8 °F 31.8 °F 30.02 in NNW 5.4 mph 11.5 mph 70 % 0.00 in
04:18 40.8 °F 32.1 °F 30.02 in West 4.1 mph 10.4 mph 71 % 0.00 in
04:23 40.7 °F 32.0 °F 30.02 in West 4.3 mph 6.9 mph 71 % 0.00 in
04:28 40.8 °F 32.1 °F 30.02 in SW 2.0 mph 3.5 mph 71 % 0.00 in
04:33 40.7 °F 32.0 °F 30.02 in WSW 4.4 mph 8.1 mph 71 % 0.00 in
04:38 40.7 °F 32.0 °F 30.02 in West 6.3 mph 11.5 mph 71 % 0.00 in
04:43 40.7 °F 31.7 °F 30.02 in WNW 5.5 mph 6.0 mph 70 % 0.00 in
04:48 40.8 °F 32.1 °F 30.02 in NW 2.6 mph 9.2 mph 71 % 0.00 in
04:54 40.8 °F 31.4 °F 30.01 in WNW 4.7 mph 11.5 mph 69 % 0.00 in
04:59 40.8 °F 31.4 °F 30.01 in SW 4.5 mph 13.8 mph 69 % 0.00 in
05:04 40.8 °F 31.8 °F 30.02 in West 3.0 mph 5.8 mph 70 % 0.00 in
05:09 40.8 °F 31.8 °F 30.01 in NW 3.1 mph 8.1 mph 70 % 0.00 in
05:14 40.8 °F 32.1 °F 30.01 in West 7.0 mph 11.5 mph 71 % 0.00 in
05:19 40.8 °F 31.4 °F 30.01 in NW 9.5 mph 13.8 mph 69 % 0.00 in
05:24 40.8 °F 31.4 °F 30.01 in NW 5.3 mph 9.2 mph 69 % 0.00 in
05:29 40.8 °F 31.4 °F 30.01 in NW 3.5 mph 11.5 mph 69 % 0.00 in
05:34 40.8 °F 31.4 °F 30.02 in West 3.8 mph 6.9 mph 69 % 0.00 in
05:39 40.8 °F 31.4 °F 30.02 in WNW 4.1 mph 6.9 mph 69 % 0.00 in
05:45 40.8 °F 31.8 °F 30.02 in NW 4.4 mph 10.4 mph 70 % 0.00 in
05:50 40.8 °F 32.1 °F 30.01 in WNW 4.0 mph 8.0 mph 71 % 0.00 in
05:55 40.8 °F 31.8 °F 30.01 in NW 4.9 mph 11.5 mph 70 % 0.00 in
06:00 40.8 °F 31.8 °F 30.02 in West 2.8 mph 11.5 mph 70 % 0.00 in
06:05 40.8 °F 31.8 °F 30.01 in WNW 1.8 mph 8.1 mph 70 % 0.00 in
06:10 40.8 °F 31.8 °F 30.01 in NW 1.1 mph 5.0 mph 70 % 0.00 in
06:15 40.8 °F 32.1 °F 30.02 in WSW 3.5 mph 8.1 mph 71 % 0.00 in
06:20 40.8 °F 32.1 °F 30.02 in West 3.9 mph 8.1 mph 71 % 0.00 in
06:25 40.8 °F 31.8 °F 30.02 in WNW 6.6 mph 10.4 mph 70 % 0.00 in
06:30 40.8 °F 31.8 °F 30.01 in NW 2.8 mph 8.0 mph 70 % 0.00 in
06:36 40.8 °F 31.8 °F 30.01 in WNW 6.6 mph 8.1 mph 70 % 0.00 in
06:41 40.7 °F 31.7 °F 30.01 in WNW 3.6 mph 6.9 mph 70 % 0.00 in
06:46 40.7 °F 32.0 °F 30.01 in WNW 6.8 mph 11.5 mph 71 % 0.00 in
06:51 40.7 °F 31.7 °F 30.01 in WNW 3.3 mph 8.1 mph 70 % 0.00 in
06:56 40.7 °F 31.7 °F 30.02 in NW 8.3 mph 16.1 mph 70 % 0.00 in
07:01 40.7 °F 31.3 °F 30.02 in NW 6.2 mph 11.5 mph 69 % 0.00 in
07:06 40.7 °F 31.7 °F 30.02 in West 3.0 mph 5.0 mph 70 % 0.00 in
07:11 40.7 °F 31.7 °F 30.02 in West 5.3 mph 10.4 mph 70 % 0.00 in
07:16 40.6 °F 31.2 °F 30.02 in West 7.0 mph 12.7 mph 69 % 0.00 in
07:21 40.6 °F 30.9 °F 30.01 in SW 2.4 mph 9.2 mph 68 % 0.00 in
07:27 40.5 °F 30.4 °F 30.02 in NW 8.3 mph 11.5 mph 67 % 0.00 in
07:32 40.4 °F 29.9 °F 30.02 in WNW 4.1 mph 6.9 mph 66 % 0.00 in
07:37 40.4 °F 30.3 °F 30.01 in WSW 2.8 mph 5.0 mph 67 % 0.00 in
07:42 40.4 °F 30.7 °F 30.02 in WNW 6.5 mph 13.8 mph 68 % 0.00 in
07:47 40.3 °F 29.8 °F 30.02 in NW 2.6 mph 4.6 mph 66 % 0.00 in
07:52 40.3 °F 29.8 °F 30.02 in NW 6.0 mph 8.1 mph 66 % 0.00 in
07:57 40.3 °F 29.8 °F 30.02 in West 2.4 mph 5.8 mph 66 % 0.00 in
08:02 40.4 °F 29.9 °F 30.02 in WNW 5.8 mph 11.5 mph 66 % 0.00 in
08:07 40.4 °F 29.9 °F 30.02 in WSW 4.7 mph 9.2 mph 66 % 0.00 in
08:12 40.4 °F 29.6 °F 30.01 in West 4.0 mph 9.2 mph 65 % 0.00 in
08:18 40.3 °F 29.5 °F 30.02 in WSW 4.4 mph 9.2 mph 65 % 0.00 in
08:23 40.4 °F 29.9 °F 30.03 in WNW 4.7 mph 9.2 mph 66 % 0.00 in
08:28 40.4 °F 30.3 °F 30.03 in SW 4.8 mph 11.5 mph 67 % 0.00 in
08:33 40.4 °F 29.9 °F 30.03 in WSW 2.7 mph 4.6 mph 66 % 0.00 in
08:38 40.4 °F 29.9 °F 30.03 in WNW 6.7 mph 11.5 mph 66 % 0.00 in
08:43 40.5 °F 30.0 °F 30.03 in SW 5.4 mph 9.0 mph 66 % 0.00 in
08:48 40.5 °F 30.4 °F 30.03 in NNW 4.1 mph 13.0 mph 67 % 0.00 in
08:53 40.5 °F 29.7 °F 30.03 in WSW 4.7 mph 9.2 mph 65 % 0.00 in
08:58 40.5 °F 29.3 °F 30.03 in WNW 5.5 mph 5.8 mph 64 % 0.00 in
09:03 40.4 °F 29.2 °F 30.03 in WNW 4.2 mph 9.2 mph 64 % 0.00 in
09:09 40.4 °F 28.8 °F 30.02 in NNW 4.7 mph 8.1 mph 63 % 0.00 in
09:14 40.4 °F 29.2 °F 30.02 in WSW 2.6 mph 8.1 mph 64 % 0.00 in
09:19 40.4 °F 29.2 °F 30.02 in NW 6.6 mph 11.5 mph 64 % 0.00 in
09:24 40.5 °F 29.3 °F 30.03 in West 5.5 mph 11.5 mph 64 % 0.00 in
09:29 40.5 °F 29.7 °F 30.03 in North 6.7 mph 11.5 mph 65 % 0.00 in
09:34 40.5 °F 30.0 °F 30.03 in WNW 5.1 mph 10.4 mph 66 % 0.00 in
09:39 40.5 °F 29.7 °F 30.03 in WNW 3.9 mph 6.9 mph 65 % 0.00 in
09:44 40.4 °F 29.2 °F 30.03 in West 5.3 mph 9.0 mph 64 % 0.00 in
09:49 40.4 °F 29.2 °F 30.03 in West 3.8 mph 10.4 mph 64 % 0.00 in
09:54 40.3 °F 29.5 °F 30.03 in WNW 7.0 mph 13.0 mph 65 % 0.00 in
10:00 40.4 °F 29.6 °F 30.03 in WSW 1.9 mph 8.1 mph 65 % 0.00 in
10:05 40.5 °F 30.0 °F 30.03 in West 3.3 mph 8.1 mph 66 % 0.00 in
10:10 40.6 °F 30.1 °F 30.03 in NW 5.0 mph 9.2 mph 66 % 0.00 in
10:15 40.6 °F 29.7 °F 30.03 in WSW 3.8 mph 6.9 mph 65 % 0.00 in
10:20 40.6 °F 29.7 °F 30.03 in WSW 4.2 mph 6.9 mph 65 % 0.00 in
10:25 40.6 °F 30.1 °F 30.03 in South 4.9 mph 11.5 mph 66 % 0.00 in
10:30 40.8 °F 29.9 °F 30.02 in WNW 4.5 mph 8.1 mph 65 % 0.00 in
10:35 40.9 °F 30.0 °F 30.03 in SW 3.6 mph 6.9 mph 65 % 0.00 in
10:40 41.0 °F 29.7 °F 30.02 in WSW 6.1 mph 9.2 mph 64 % 0.00 in
10:45 41.1 °F 30.2 °F 30.02 in WSW 4.8 mph 8.1 mph 65 % 0.00 in
10:51 41.1 °F 29.8 °F 30.01 in WNW 4.1 mph 6.9 mph 64 % 0.00 in
10:56 41.2 °F 29.9 °F 30.01 in West 4.5 mph 8.1 mph 64 % 0.00 in
11:01 41.2 °F 29.9 °F 30.01 in South 3.6 mph 8.1 mph 64 % 0.00 in
11:06 41.2 °F 29.9 °F 30.00 in SW 5.1 mph 10.0 mph 64 % 0.00 in
11:11 41.3 °F 30.0 °F 30.00 in West 3.2 mph 9.2 mph 64 % 0.00 in
11:16 41.4 °F 30.1 °F 30.00 in WNW 5.2 mph 8.0 mph 64 % 0.00 in
11:21 41.4 °F 30.1 °F 29.99 in WNW 2.7 mph 4.6 mph 64 % 0.00 in
11:26 41.6 °F 30.7 °F 29.99 in SSW 6.5 mph 9.2 mph 65 % 0.00 in
11:31 41.9 °F 31.0 °F 29.99 in West 4.3 mph 4.6 mph 65 % 0.00 in
11:37 42.1 °F 30.8 °F 29.99 in West 4.8 mph 10.0 mph 64 % 0.00 in
11:42 42.2 °F 30.5 °F 29.99 in WNW 4.6 mph 9.2 mph 63 % 0.00 in
11:47 42.2 °F 30.5 °F 29.98 in West 4.5 mph 9.2 mph 63 % 0.00 in
11:52 42.1 °F 30.4 °F 29.98 in West 6.9 mph 9.2 mph 63 % 0.00 in
11:57 42.2 °F 30.9 °F 29.98 in WSW 5.6 mph 9.0 mph 64 % 0.00 in
12:02 42.2 °F 30.9 °F 29.98 in WSW 5.3 mph 10.4 mph 64 % 0.00 in
12:06 42.2 °F 30.9 °F 29.98 in West 2.5 mph 7.0 mph 64 % 0.00 in
12:08 42.2 °F 30.5 °F 29.97 in WSW 7.2 mph 9.2 mph 63 % 0.00 in
12:13 42.1 °F 30.8 °F 29.97 in West 5.0 mph 10.4 mph 64 % 0.00 in
12:18 42.0 °F 30.7 °F 29.97 in SSW 4.3 mph 8.1 mph 64 % 0.00 in
12:23 41.9 °F 30.6 °F 29.97 in WSW 2.9 mph 9.2 mph 64 % 0.00 in
12:28 41.8 °F 30.5 °F 29.97 in NW 6.2 mph 10.0 mph 64 % 0.00 in
12:33 41.5 °F 30.2 °F 29.96 in SW 6.8 mph 11.5 mph 64 % 0.00 in
12:38 41.4 °F 30.5 °F 29.96 in West 3.8 mph 6.9 mph 65 % 0.00 in
12:43 41.4 °F 30.5 °F 29.96 in WSW 3.7 mph 5.8 mph 65 % 0.00 in
12:48 41.3 °F 30.4 °F 29.96 in West 4.3 mph 10.4 mph 65 % 0.00 in
12:53 41.3 °F 30.0 °F 29.96 in WNW 5.2 mph 8.1 mph 64 % 0.00 in
12:59 41.3 °F 30.0 °F 29.96 in NW 5.7 mph 7.0 mph 64 % 0.00 in
13:04 41.3 °F 30.0 °F 29.95 in WSW 4.5 mph 8.1 mph 64 % 0.00 in
13:09 41.3 °F 30.0 °F 29.95 in West 4.7 mph 10.0 mph 64 % 0.00 in
13:14 41.3 °F 30.4 °F 29.95 in West 4.7 mph 9.2 mph 65 % 0.00 in
13:19 41.4 °F 30.5 °F 29.95 in WNW 5.3 mph 11.5 mph 65 % 0.00 in
13:24 41.4 °F 30.5 °F 29.95 in West 5.6 mph 6.0 mph 65 % 0.00 in
13:29 41.5 °F 30.6 °F 29.95 in WSW 2.9 mph 6.9 mph 65 % 0.00 in
13:34 41.6 °F 30.7 °F 29.95 in SW 5.4 mph 9.2 mph 65 % 0.00 in
13:39 41.6 °F 31.1 °F 29.94 in SW 3.7 mph 6.9 mph 66 % 0.00 in
13:44 41.6 °F 30.7 °F 29.94 in WNW 5.7 mph 12.7 mph 65 % 0.00 in
13:50 41.5 °F 30.6 °F 29.94 in WSW 4.0 mph 5.0 mph 65 % 0.00 in
13:55 41.5 °F 30.6 °F 29.94 in West 5.4 mph 11.5 mph 65 % 0.00 in
14:00 41.4 °F 30.5 °F 29.94 in West 3.9 mph 8.1 mph 65 % 0.00 in
14:05 41.4 °F 30.1 °F 29.94 in WSW 6.6 mph 11.5 mph 64 % 0.00 in
14:10 41.3 °F 30.0 °F 29.94 in NW 5.6 mph 11.5 mph 64 % 0.00 in
14:15 41.2 °F 30.3 °F 29.94 in WSW 4.3 mph 6.9 mph 65 % 0.00 in
14:20 41.1 °F 30.2 °F 29.93 in WSW 4.4 mph 11.0 mph 65 % 0.00 in
14:25 41.1 °F 30.2 °F 29.93 in West 3.9 mph 6.9 mph 65 % 0.00 in
14:30 41.1 °F 30.6 °F 29.94 in West 5.3 mph 11.5 mph 66 % 0.00 in
14:35 41.1 °F 30.2 °F 29.93 in West 6.3 mph 12.7 mph 65 % 0.00 in
14:41 41.0 °F 29.7 °F 29.93 in WNW 6.7 mph 13.0 mph 64 % 0.00 in
14:46 41.0 °F 29.7 °F 29.93 in WSW 5.3 mph 10.4 mph 64 % 0.00 in
14:51 41.0 °F 30.1 °F 29.93 in WSW 5.2 mph 8.1 mph 65 % 0.00 in
14:56 41.0 °F 29.7 °F 29.93 in West 6.3 mph 11.0 mph 64 % 0.00 in
15:01 40.9 °F 29.7 °F 29.93 in WSW 7.3 mph 11.5 mph 64 % 0.00 in
15:06 40.8 °F 29.6 °F 29.93 in WSW 5.6 mph 16.1 mph 64 % 0.00 in
15:11 40.7 °F 29.8 °F 29.93 in SW 7.3 mph 12.0 mph 65 % 0.00 in
15:16 40.6 °F 29.7 °F 29.93 in NW 6.9 mph 11.5 mph 65 % 0.00 in
15:21 40.5 °F 29.7 °F 29.93 in WNW 5.6 mph 11.5 mph 65 % 0.00 in
15:26 40.4 °F 29.6 °F 29.93 in NW 6.7 mph 10.4 mph 65 % 0.00 in
15:32 40.3 °F 29.5 °F 29.93 in WSW 7.8 mph 13.8 mph 65 % 0.00 in
15:37 40.2 °F 29.4 °F 29.94 in West 5.6 mph 11.5 mph 65 % 0.00 in
15:42 40.1 °F 28.9 °F 29.94 in SSW 8.6 mph 11.5 mph 64 % 0.00 in
15:47 40.0 °F 29.2 °F 29.94 in West 4.4 mph 11.5 mph 65 % 0.00 in
15:52 40.0 °F 29.2 °F 29.94 in SSW 3.4 mph 10.4 mph 65 % 0.00 in
15:57 39.9 °F 29.1 °F 29.94 in WSW 8.6 mph 16.1 mph 65 % 0.00 in
16:02 39.8 °F 29.0 °F 29.94 in WNW 8.7 mph 11.5 mph 65 % 0.00 in
16:07 39.7 °F 28.9 °F 29.94 in SW 6.5 mph 11.0 mph 65 % 0.00 in
16:12 39.7 °F 28.9 °F 29.94 in West 7.1 mph 7.1 mph 65 % 0.00 in
16:17 39.6 °F 28.8 °F 29.94 in WSW 6.4 mph 9.0 mph 65 % 0.00 in
16:23 39.5 °F 28.3 °F 29.94 in West 6.5 mph 11.5 mph 64 % 0.00 in
16:28 39.5 °F 27.9 °F 29.94 in WSW 7.2 mph 11.5 mph 63 % 0.00 in
16:33 39.4 °F 27.8 °F 29.94 in WNW 3.7 mph 8.1 mph 63 % 0.00 in
16:38 39.3 °F 28.1 °F 29.94 in SW 6.1 mph 11.5 mph 64 % 0.00 in
16:43 39.2 °F 27.7 °F 29.94 in WSW 7.5 mph 11.5 mph 63 % 0.00 in
16:48 39.0 °F 27.8 °F 29.94 in WSW 6.6 mph 8.0 mph 64 % 0.00 in
16:53 38.9 °F 27.8 °F 29.94 in WNW 6.5 mph 10.4 mph 64 % 0.00 in
16:58 38.7 °F 27.9 °F 29.94 in West 8.7 mph 11.5 mph 65 % 0.00 in
17:03 38.6 °F 27.5 °F 29.95 in SW 5.6 mph 13.8 mph 64 % 0.00 in
17:08 38.5 °F 27.4 °F 29.94 in West 2.9 mph 10.4 mph 64 % 0.00 in
17:14 38.4 °F 27.7 °F 29.94 in SSW 4.2 mph 12.7 mph 65 % 0.00 in
17:19 38.3 °F 27.2 °F 29.94 in SW 4.3 mph 10.4 mph 64 % 0.00 in
17:24 38.3 °F 27.2 °F 29.94 in West 3.5 mph 6.9 mph 64 % 0.00 in
17:29 38.2 °F 26.7 °F 29.94 in WNW 6.3 mph 9.2 mph 63 % 0.00 in
17:34 38.1 °F 27.0 °F 29.95 in NW 5.0 mph 8.0 mph 64 % 0.00 in
17:39 38.1 °F 27.0 °F 29.95 in West 2.5 mph 6.9 mph 64 % 0.00 in
17:44 38.0 °F 26.9 °F 29.94 in WSW 1.9 mph 3.5 mph 64 % 0.00 in
17:49 38.0 °F 26.9 °F 29.95 in WSW 5.4 mph 11.5 mph 64 % 0.00 in
17:54 38.0 °F 26.9 °F 29.95 in SW 1.9 mph 4.6 mph 64 % 0.00 in
18:00 38.0 °F 27.3 °F 29.96 in WSW 3.1 mph 7.0 mph 65 % 0.00 in
18:05 37.8 °F 27.1 °F 29.96 in SW 4.8 mph 5.8 mph 65 % 0.00 in
18:10 37.8 °F 27.1 °F 29.96 in WSW 7.8 mph 10.4 mph 65 % 0.00 in
18:15 37.8 °F 27.1 °F 29.96 in WSW 2.9 mph 6.9 mph 65 % 0.00 in
18:20 37.8 °F 27.5 °F 29.96 in WSW 2.4 mph 4.0 mph 66 % 0.00 in
18:25 37.9 °F 27.5 °F 29.96 in WSW 3.9 mph 8.1 mph 66 % 0.00 in
18:30 38.0 °F 27.3 °F 29.96 in WNW 7.1 mph 11.5 mph 65 % 0.00 in
18:35 38.1 °F 27.0 °F 29.97 in WSW 6.0 mph 11.0 mph 64 % 0.00 in
18:40 38.1 °F 27.0 °F 29.97 in West 7.0 mph 10.4 mph 64 % 0.00 in
18:45 38.2 °F 26.7 °F 29.97 in West 7.9 mph 10.0 mph 63 % 0.00 in
18:51 38.3 °F 26.8 °F 29.97 in West 4.7 mph 9.2 mph 63 % 0.00 in
18:56 38.3 °F 26.4 °F 29.97 in West 3.9 mph 10.4 mph 62 % 0.00 in
19:01 38.4 °F 26.5 °F 29.97 in NNW 4.6 mph 13.0 mph 62 % 0.00 in
19:06 38.4 °F 26.1 °F 29.97 in West 12.2 mph 19.6 mph 61 % 0.00 in
19:11 38.4 °F 25.7 °F 29.97 in West 9.4 mph 18.0 mph 60 % 0.00 in
19:16 38.3 °F 26.0 °F 29.97 in West 4.7 mph 13.8 mph 61 % 0.00 in
19:21 38.2 °F 25.9 °F 29.97 in WNW 6.7 mph 13.8 mph 61 % 0.00 in
19:26 38.1 °F 25.8 °F 29.97 in West 5.2 mph 11.5 mph 61 % 0.00 in
19:31 38.1 °F 25.8 °F 29.97 in SW 3.4 mph 11.5 mph 61 % 0.00 in
19:36 37.9 °F 25.2 °F 29.97 in West 7.5 mph 16.1 mph 60 % 0.00 in
19:42 37.8 °F 25.5 °F 29.97 in West 5.8 mph 9.2 mph 61 % 0.00 in
19:47 37.8 °F 24.7 °F 29.97 in WSW 7.4 mph 11.5 mph 59 % 0.00 in
19:52 37.8 °F 24.7 °F 29.98 in WSW 6.7 mph 11.5 mph 59 % 0.00 in
19:57 37.8 °F 25.5 °F 29.98 in SW 4.3 mph 9.2 mph 61 % 0.00 in
20:02 37.7 °F 25.1 °F 29.98 in West 7.6 mph 17.3 mph 60 % 0.00 in
20:07 37.7 °F 25.1 °F 29.98 in WNW 6.5 mph 10.0 mph 60 % 0.00 in
20:12 37.7 °F 25.8 °F 29.99 in WSW 3.5 mph 13.8 mph 62 % 0.00 in
20:17 37.6 °F 25.7 °F 29.99 in WNW 6.6 mph 15.0 mph 62 % 0.00 in
20:22 37.5 °F 24.9 °F 29.99 in WNW 3.4 mph 13.8 mph 60 % 0.00 in
20:27 37.4 °F 24.4 °F 29.99 in West 4.8 mph 9.2 mph 59 % 0.00 in
20:33 37.3 °F 23.9 °F 29.99 in West 5.0 mph 16.1 mph 58 % 0.00 in
20:38 37.2 °F 24.2 °F 29.99 in WNW 5.3 mph 13.8 mph 59 % 0.00 in
20:43 37.2 °F 23.8 °F 29.99 in West 10.0 mph 15.0 mph 58 % 0.00 in
20:48 37.1 °F 23.7 °F 29.99 in WSW 4.9 mph 12.0 mph 58 % 0.00 in
20:53 37.1 °F 23.7 °F 29.99 in SW 5.4 mph 9.2 mph 58 % 0.00 in
20:58 37.0 °F 24.0 °F 29.99 in West 4.4 mph 10.4 mph 59 % 0.00 in
21:03 36.9 °F 23.9 °F 29.99 in WSW 5.7 mph 11.5 mph 59 % 0.00 in
21:08 36.9 °F 23.9 °F 29.99 in WSW 6.5 mph 11.5 mph 59 % 0.00 in
21:13 36.9 °F 23.9 °F 29.99 in WSW 9.9 mph 17.0 mph 59 % 0.00 in
21:18 36.9 °F 23.9 °F 29.99 in WSW 7.8 mph 13.8 mph 59 % 0.00 in
21:24 36.9 °F 23.9 °F 29.99 in WSW 6.0 mph 12.7 mph 59 % 0.00 in
21:29 36.9 °F 23.9 °F 29.98 in WSW 6.4 mph 8.1 mph 59 % 0.00 in
21:34 36.9 °F 23.5 °F 29.99 in WNW 5.5 mph 11.5 mph 58 % 0.00 in
21:39 36.9 °F 23.9 °F 29.99 in WNW 7.6 mph 16.1 mph 59 % 0.00 in
21:44 36.8 °F 24.2 °F 29.99 in WNW 9.2 mph 15.0 mph 60 % 0.00 in
21:49 36.8 °F 23.8 °F 29.99 in NW 6.7 mph 13.8 mph 59 % 0.00 in
21:54 36.8 °F 24.2 °F 29.99 in West 6.9 mph 10.4 mph 60 % 0.00 in
21:59 36.7 °F 23.7 °F 29.98 in West 7.7 mph 15.0 mph 59 % 0.00 in
22:04 36.8 °F 24.2 °F 29.99 in WSW 6.9 mph 12.7 mph 60 % 0.00 in
22:09 36.7 °F 24.1 °F 29.99 in West 6.9 mph 12.0 mph 60 % 0.00 in
22:15 36.7 °F 24.5 °F 29.99 in SSW 9.7 mph 13.8 mph 61 % 0.00 in
22:20 36.7 °F 24.9 °F 29.99 in WNW 9.1 mph 11.5 mph 62 % 0.00 in
22:25 36.7 °F 24.5 °F 29.99 in NW 6.9 mph 11.5 mph 61 % 0.00 in
22:30 36.6 °F 25.2 °F 29.98 in WSW 3.1 mph 10.4 mph 63 % 0.00 in
22:40 36.5 °F 25.5 °F 29.99 in WNW 4.5 mph 10.4 mph 64 % 0.00 in
22:45 36.5 °F 25.5 °F 29.99 in WSW 4.7 mph 12.7 mph 64 % 0.00 in
22:51 36.5 °F 25.8 °F 29.99 in SW 8.6 mph 16.1 mph 65 % 0.00 in
22:56 36.4 °F 25.7 °F 29.99 in SW 4.7 mph 12.7 mph 65 % 0.00 in
23:01 36.3 °F 26.0 °F 29.99 in SW 6.8 mph 12.7 mph 66 % 0.00 in
23:06 36.2 °F 25.6 °F 29.99 in WSW 5.9 mph 12.7 mph 65 % 0.00 in
23:11 36.2 °F 25.9 °F 29.99 in WSW 6.0 mph 11.0 mph 66 % 0.00 in
23:16 36.2 °F 25.9 °F 29.99 in WNW 7.3 mph 10.4 mph 66 % 0.00 in
23:21 36.1 °F 25.8 °F 29.99 in WNW 2.6 mph 8.1 mph 66 % 0.00 in
23:26 36.1 °F 25.5 °F 29.99 in WSW 4.7 mph 11.5 mph 65 % 0.00 in
23:31 36.0 °F 25.7 °F 29.99 in SW 6.2 mph 13.8 mph 66 % 0.00 in
23:36 36.0 °F 25.7 °F 29.99 in SW 9.1 mph 11.5 mph 66 % 0.00 in
23:42 36.0 °F 25.7 °F 29.99 in WNW 9.3 mph 13.0 mph 66 % 0.00 in
23:47 36.0 °F 25.4 °F 29.99 in SW 7.7 mph 13.8 mph 65 % 0.00 in
23:52 35.9 °F 25.3 °F 29.99 in West 9.8 mph 17.3 mph 65 % 0.00 in
23:57 35.9 °F 25.3 °F 29.99 in NW 6.5 mph 11.5 mph 65 % 0.00 in
Crab Meadow Weather
Compliments of Weather Underground - 3 mb

Script developed by  Jim McMurry - jmcmurry@mwt.net Adapted for the template by  Wim van der Kuil - Leuven-Template.eu

Weather Terms: Warning - A warning is issued when a hazardous weather or hydrologic event is occurring, imminent or likely. A warning means weather conditions pose a threat to life or property. People in the path of the storm need to take protective action.